Satellite: CP6
Catalog number: 35004
Epoch time:      10034.91512608
Element set:    0204
Inclination:      040.4631 deg
RA of node:       289.9263 deg
Eccentricity:    0.0022522
Arg of perigee:   096.8618 deg
Mean anomaly:     263.4794 deg
Mean motion:   15.42713698 rev/day
Decay rate:      7.903e-05 rev/day^2
Epoch rev:           04010
Checksum:              285

Satellite: AEROCUB3
Catalog number: 35005
Epoch time:      10035.84555535
Element set:     207
Inclination:      040.4732 deg
RA of node:       284.9414 deg
Eccentricity:    0.0020857
Arg of perigee:   101.3265 deg
Mean anomaly:     258.9915 deg
Mean motion:   15.43207406 rev/day
Decay rate:     1.6759e-04 rev/day^2
Epoch rev:            4024
Checksum:              282

Satellite: DRAGNSAT
Catalog number: 35690
Epoch time:      10035.84316292
Element set:     231
Inclination:      051.6333 deg
RA of node:       173.6506 deg
Eccentricity:    0.0000856
Arg of perigee:   063.4055 deg
Mean anomaly:     296.7013 deg
Mean motion:   15.97911071 rev/day
Decay rate:    1.22123e-03 rev/day^2
Epoch rev:            3006
Checksum:              259

Satellite: POLLUX
Catalog number: 35693
Epoch time:      10035.85532384
Element set:     226
Inclination:      051.6368 deg
RA of node:       175.2834 deg
Eccentricity:    0.0002173
Arg of perigee:   005.1054 deg
Mean anomaly:     355.0006 deg
Mean motion:   15.94990546 rev/day
Decay rate:     8.0118e-04 rev/day^2
Epoch rev:            3001
Checksum:              270

Satellite: CASTOR
Catalog number: 35694
Epoch time:      10035.57724388
Element set:     180
Inclination:      051.6378 deg
RA of node:       181.0562 deg
Eccentricity:    0.0003010
Arg of perigee:   035.9653 deg
Mean anomaly:     324.1800 deg
Mean motion:   15.86479234 rev/day
Decay rate:     2.7873e-04 rev/day^2
Epoch rev:            2991
Checksum:              299

Satellite: METEOR-M
Catalog number: 35865
Epoch time:      10035.69475036
Element set:     119
Inclination:      098.7780 deg
RA of node:       090.3267 deg
Eccentricity:    0.0003062
Arg of perigee:   040.9093 deg
Mean anomaly:     319.2260 deg
Mean motion:   14.21828576 rev/day
Decay rate:       1.76e-06 rev/day^2
Epoch rev:            1989
Checksum:              307

Satellite: RS-38
Catalog number: 35869
Epoch time:      10034.83581886
Element set:     121
Inclination:      098.7773 deg
RA of node:       089.4916 deg
Eccentricity:    0.0005221
Arg of perigee:   036.6579 deg
Mean anomaly:     323.4899 deg
Mean motion:   14.21974950 rev/day
Decay rate:       1.76e-06 rev/day^2
Epoch rev:            1977
Checksum:              353

/EX


_______________________________________________
Via the Keps mailing list courtesy of AMSAT-NA
http://amsat.org/mailman/listinfo/keps

--- ViaMAIL!/WC v1.60d
 * Origin: Chowdanet (401-724-4410) telnet://chowdanet.com  (1:323/120)